When you browse on this site, cookies collect data to enhance your experience and personalize the content and advertising you see.
Visit our Privacy Policy to learn more. By continuing to use the site, you agree to this use of cookies and data.
  • In Lithuania
  • List of Countries
  • For 7 days
  • Water Temperature
  • Weather Map
  • Weather Widgets
  • user-avatar
    Login

    Hourly Weather Maidstone

    Today, 21 February, Friday

    Time Temperature Precipitation Wind Pressure Humidity
    00:00 +1°C° 0 mm 6 mps 764 mmHg 77%
    01:00 +1°C° 0 mm 6 mps 764 mmHg 79%
    02:00 +1°C° 0 mm 5 mps 765 mmHg 80%
    03:00 +1°C° 0 mm 5 mps 765 mmHg 81%
    04:00 +2°C° 0 mm 5 mps 765 mmHg 82%
    05:00 +2°C° 0 mm 5 mps 765 mmHg 83%
    06:00 +2°C° 0 mm 5 mps 766 mmHg 84%
    13:00 +7°C° 0 mm 10 mps 765 mmHg 75%
    14:00 +7°C° 0 mm 10 mps 765 mmHg 75%
    15:00 +7°C° 0 mm 10 mps 764 mmHg 76%
    16:00 +7°C° 0 mm 10 mps 764 mmHg 77%
    17:00 +7°C° 0 mm 10 mps 764 mmHg 79%
    18:00 +6°C° 0 mm 10 mps 764 mmHg 80%
    19:00 +7°C° 0 mm 10 mps 763 mmHg 80%
    20:00 +7°C° 0 mm 11 mps 763 mmHg 79%
    21:00 +7°C° 0 mm 11 mps 763 mmHg 79%
    22:00 +7°C° 0 mm 11 mps 762 mmHg 79%
    23:00 +7°C° 0 mm 11 mps 762 mmHg 79%

    Tomorrow, 22 February, Saturday

    Time Temperature Precipitation Wind Pressure Humidity
    00:00 +7°C° 0 mm 11 mps 762 mmHg 79%
    01:00 +7°C° 0 mm 11 mps 762 mmHg 79%
    02:00 +7°C° 0 mm 11 mps 761 mmHg 80%
    03:00 +7°C° 0 mm 11 mps 760 mmHg 80%
    04:00 +7°C° 0 mm 11 mps 760 mmHg 81%
    05:00 +8°C° 0 mm 12 mps 760 mmHg 82%
    06:00 +8°C° 0 mm 12 mps 760 mmHg 83%
    07:00 +8°C° 0 mm 11 mps 760 mmHg 83%
    08:00 +9°C° 0 mm 11 mps 760 mmHg 84%
    09:00 +9°C° 0 mm 10 mps 760 mmHg 84%
    10:00 +9°C° 0 mm 11 mps 761 mmHg 77%
    11:00 +11°C° 0 mm 11 mps 761 mmHg 71%
    12:00 +11°C° 0 mm 11 mps 762 mmHg 65%
    13:00 +9°C° 0 mm 10 mps 762 mmHg 64%
    14:00 +9°C° 0 mm 10 mps 762 mmHg 64%
    15:00 +8°C° 0 mm 10 mps 762 mmHg 63%
    16:00 +8°C° 0 mm 9 mps 763 mmHg 64%
    17:00 +7°C° 0 mm 8 mps 763 mmHg 66%
    18:00 +8°C° 0 mm 7 mps 764 mmHg 67%
    19:00 +6°C° 0 mm 7 mps 764 mmHg 70%
    20:00 +6°C° 0 mm 7 mps 765 mmHg 72%
    21:00 +5°C° 0 mm 6 mps 765 mmHg 75%
    22:00 +5°C° 0 mm 6 mps 765 mmHg 76%
    23:00 +5°C° 0 mm 6 mps 765 mmHg 77%

    Day after tomorrow, 23 February, Sunday

    Time Temperature Precipitation Wind Pressure Humidity
    00:00 +5°C° 0 mm 6 mps 765 mmHg 78%
    01:00 +5°C° 0 mm 6 mps 765 mmHg 80%
    02:00 +5°C° 0 mm 6 mps 764 mmHg 83%
    03:00 +7°C° 0 mm 6 mps 764 mmHg 85%
    04:00 +6°C° 0.5 mm 7 mps 763 mmHg 87%
    05:00 +7°C° 0.5 mm 8 mps 761 mmHg 89%
    06:00 +7°C° 0.5 mm 9 mps 760 mmHg 92%
    07:00 +8°C° 0.2 mm 10 mps 759 mmHg 90%
    08:00 +9°C° 0.2 mm 11 mps 759 mmHg 88%
    09:00 +10°C° 0.2 mm 12 mps 758 mmHg 86%
    10:00 +12°C° 0.1 mm 12 mps 758 mmHg 85%
    11:00 +12°C° 0.1 mm 11 mps 758 mmHg 84%
    12:00 +12°C° 0.1 mm 11 mps 759 mmHg 83%
    13:00 +12°C° 0.1 mm 11 mps 759 mmHg 83%
    14:00 +12°C° 0.1 mm 10 mps 760 mmHg 83%
    15:00 +12°C° 0.1 mm 9 mps 761 mmHg 83%
    16:00 +10°C° 0.3 mm 8 mps 762 mmHg 82%
    17:00 +9°C° 0.3 mm 6 mps 763 mmHg 81%
    18:00 +7°C° 0.3 mm 4 mps 764 mmHg 80%
    19:00 +8°C° 0 mm 3 mps 764 mmHg 79%
    20:00 +7°C° 0 mm 3 mps 765 mmHg 79%
    21:00 +6°C° 0 mm 2 mps 766 mmHg 78%
    22:00 +7°C° 0 mm 1 mps 766 mmHg 78%
    23:00 +7°C° 0 mm 1 mps 767 mmHg 78%

    24 February, Monday

    Time Temperature Precipitation Wind Pressure Humidity
    00:00 +5°C° 0 mm 0 mps 767 mmHg 78%
    01:00 +7°C° 0 mm 1 mps 766 mmHg 79%
    02:00 +6°C° 0 mm 2 mps 766 mmHg 80%
    03:00 +5°C° 0 mm 4 mps 765 mmHg 81%
    04:00 +6°C° 0 mm 4 mps 765 mmHg 85%
    05:00 +6°C° 0 mm 5 mps 764 mmHg 90%
    06:00 +7°C° 0 mm 5 mps 763 mmHg 95%
    07:00 +8°C° 0 mm 6 mps 763 mmHg 93%
    08:00 +9°C° 0 mm 7 mps 762 mmHg 91%
    09:00 +10°C° 0 mm 8 mps 761 mmHg 89%
    10:00 +10°C° 0 mm 9 mps 761 mmHg 88%
    11:00 +10°C° 0 mm 9 mps 760 mmHg 86%
    12:00 +9°C° 0 mm 10 mps 759 mmHg 85%
    13:00 +8°C° 0 mm 10 mps 758 mmHg 83%
    14:00 +8°C° 0 mm 11 mps 758 mmHg 82%
    15:00 +8°C° 0 mm 11 mps 757 mmHg 81%
    16:00 +8°C° 0 mm 11 mps 756 mmHg 82%
    17:00 +8°C° 0 mm 10 mps 756 mmHg 82%
    18:00 +8°C° 0 mm 10 mps 755 mmHg 83%
    19:00 +8°C° 0.1 mm 9 mps 756 mmHg 82%
    20:00 +8°C° 0.1 mm 9 mps 756 mmHg 80%
    21:00 +8°C° 0.1 mm 9 mps 756 mmHg 79%
    22:00 +7°C° 0 mm 8 mps 756 mmHg 77%
    23:00 +5°C° 0 mm 7 mps 756 mmHg 75%

    25 February, Tuesday

    Time Temperature Precipitation Wind Pressure Humidity
    00:00 +4°C° 0 mm 6 mps 756 mmHg 73%
    01:00 +4°C° 0 mm 6 mps 756 mmHg 74%
    02:00 +3°C° 0 mm 6 mps 756 mmHg 75%
    03:00 +3°C° 0 mm 6 mps 756 mmHg 76%
    04:00 +3°C° 0 mm 6 mps 756 mmHg 74%
    05:00 +3°C° 0 mm 6 mps 756 mmHg 72%
    06:00 +3°C° 0 mm 6 mps 756 mmHg 69%
    07:00 +3°C° 0 mm 6 mps 756 mmHg 71%
    08:00 +3°C° 0 mm 7 mps 755 mmHg 73%
    09:00 +4°C° 0 mm 8 mps 755 mmHg 75%
    10:00 +4°C° 0 mm 8 mps 755 mmHg 70%
    11:00 +5°C° 0 mm 8 mps 754 mmHg 65%
    12:00 +6°C° 0 mm 8 mps 754 mmHg 61%
    13:00 +6°C° 0.1 mm 8 mps 753 mmHg 63%
    14:00 +6°C° 0.1 mm 9 mps 752 mmHg 65%
    15:00 +6°C° 0.1 mm 10 mps 751 mmHg 68%
    16:00 +5°C° 0.2 mm 9 mps 751 mmHg 69%
    17:00 +4°C° 0.2 mm 8 mps 751 mmHg 71%
    18:00 +2°C° 0.2 mm 8 mps 750 mmHg 72%
    19:00 +2°C° 0.1 mm 8 mps 751 mmHg 73%
    20:00 +1°C° 0.1 mm 8 mps 751 mmHg 73%
    21:00 +1°C° 0.1 mm 8 mps 752 mmHg 73%
    22:00 +1°C° 0 mm 8 mps 752 mmHg 72%
    23:00 0°C° 0 mm 8 mps 752 mmHg 70%

    26 February, Wednesday

    Time Temperature Precipitation Wind Pressure Humidity
    00:00 -1°C° 0 mm 7 mps 752 mmHg 69%
    01:00 -1°C° 0 mm 7 mps 752 mmHg 73%
    02:00 -1°C° 0 mm 7 mps 752 mmHg 77%
    03:00 -1°C° 0 mm 7 mps 752 mmHg 80%
    04:00 -1°C° 0.1 mm 7 mps 752 mmHg 83%
    05:00 -1°C° 0.1 mm 7 mps 751 mmHg 86%
    06:00 -1°C° 0.1 mm 7 mps 751 mmHg 89%
    07:00 -1°C° 0 mm 8 mps 751 mmHg 81%
    08:00 0°C° 0 mm 8 mps 751 mmHg 73%
    09:00 0°C° 0 mm 8 mps 751 mmHg 65%
    10:00 +1°C° 0 mm 8 mps 751 mmHg 61%
    11:00 +2°C° 0 mm 9 mps 751 mmHg 57%
    12:00 +3°C° 0 mm 9 mps 751 mmHg 53%
    13:00 +3°C° 0.1 mm 9 mps 751 mmHg 54%
    14:00 +3°C° 0.1 mm 10 mps 750 mmHg 54%
    15:00 +3°C° 0.1 mm 10 mps 750 mmHg 54%
    16:00 +2°C° 0 mm 9 mps 750 mmHg 57%
    17:00 +1°C° 0 mm 8 mps 751 mmHg 59%
    18:00 0°C° 0 mm 7 mps 751 mmHg 61%
    19:00 0°C° 0 mm 7 mps 752 mmHg 64%
    20:00 0°C° 0 mm 7 mps 753 mmHg 68%
    21:00 0°C° 0 mm 7 mps 754 mmHg 71%
    22:00 0°C° 0 mm 7 mps 754 mmHg 71%
    23:00 -1°C° 0 mm 7 mps 755 mmHg 71%
    Show more